Regional Weather Roundup
Issued by NWS

Home | Current Version | Previous Version | Graphics & Text | Print | Product List | Glossary On
Versions: 1 2 3 4 5 6 7 8 9 10 11 12 13 14 15 16 17 18 19 20 21 22 23 24 25 26 27 28 29 30 31 32 33 34 35 36 37 38 39 40 41 42 43 44 45 46 47 48 49 50
000
ASUS43 KFSD 060402
RWRSD

WEATHER ROUNDUP FOR SOUTH DAKOTA
NATIONAL WEATHER SERVICE SIOUX FALLS SD
1100 PM CDT THU MAY 05 2016

NOTE: "FAIR" INDICATES FEW OR NO CLOUDS BELOW 12,000 FEET WITH NO
SIGNIFICANT WEATHER AND/OR OBSTRUCTIONS TO VISIBILITY.


SDZ001>005-009-010-012>017-060500-
NORTHWEST AND NORTH CENTRAL SOUTH DAKOTA

CITY           SKY/WX    TMP DP  RH WIND       PRES   REMARKS
BUFFALO          N/A     66  49  54 S8        29.80R
FAITH            N/A     74  41  30 E3        29.85R
MOBRIDGE       PTCLDY    66  52  60 SE8       29.79S
$$

SDZ012>016-024>037-041>051-057-063-072>074-060500-
SOUTHWEST AND SOUTH CENTRAL SOUTH DAKOTA

CITY           SKY/WX    TMP DP  RH WIND       PRES   REMARKS
RAPID CTY ARPT PTCLDY    55  43  63 CALM      29.88R
PIERRE         PTCLDY    68  51  54 SE14      29.79S
CUSTER         CLOUDY    59  33  37 CALM      30.03R
ELLSWORTH AFB  PTCLDY    66  42  41 W5        29.88R
PHILIP         PTCLDY    59  53  80 NW5       29.83R
PINE RIDGE     CLEAR     69  43  38 S13       29.91R
WINNER         LGT RAIN  74  46  36 S24       29.86R
$$

SDZ004>011-016>023-039-040-060500-
NORTHEAST SOUTH DAKOTA

CITY           SKY/WX    TMP DP  RH WIND       PRES   REMARKS
ABERDEEN       CLEAR     61  42  49 S12       29.84R
WATERTOWN      CLEAR     63  43  48 S8        29.90R
BROOKINGS      CLEAR     64  45  49 S13       29.92R
SISSETON         N/A     71  42  35 SW14      29.83S
$$

SDZ017-020-022-023-036>040-048>070-060500-
SOUTHEAST SOUTH DAKOTA

CITY           SKY/WX    TMP DP  RH WIND       PRES   REMARKS
SIOUX FALLS    CLEAR     65  44  46 S13       29.93S
HURON          CLEAR     67  46  47 S12       29.86R
MITCHELL       CLEAR     64  48  56 S10       29.89R
YANKTON        CLEAR     66  39  37 S13       29.92S
$$

ABBREVIATIONS USED IN REMARKS
   TC - TEMPERATURE IN CELSIUS
  WCI - WIND CHILL INDEX
   HX - HEAT INDEX
  VSB - VISIBILITY




USA.gov is the U.S. government's official web portal to all federal, state and local government web resources and services.